Time,TemperatureF,DewpointF,PressureIn,WindDirection,WindDirectionDegrees,WindSpeedMPH,WindSpeedGustMPH,Humidity,HourlyPrecipIn,Conditions,Clouds,dailyrainin,SoftwareType,DateUTC
2013-09-08 00:01:00,65.3,61.0,30.12,ENE,57,0.0,-999.0,87,-99.99,,,0.00,weatherlink.com 1.10,2013-09-08 04:01:00,
2013-09-08 00:16:00,65.3,61.0,30.12,ENE,57,0.0,-999.0,87,-99.99,,,0.00,weatherlink.com 1.10,2013-09-08 04:16:00,
2013-09-08 00:31:00,65.3,62.0,30.11,ENE,57,0.0,-999.0,88,-99.99,,,0.00,weatherlink.com 1.10,2013-09-08 04:31:00,
2013-09-08 00:46:00,65.4,62.0,30.12,ENE,57,0.0,-999.0,88,-99.99,,,0.00,weatherlink.com 1.10,2013-09-08 04:46:00,
2013-09-08 01:01:00,65.2,62.0,30.11,ENE,57,0.0,-999.0,88,-99.99,,,0.00,weatherlink.com 1.10,2013-09-08 05:01:00,
2013-09-08 01:16:00,64.9,61.0,30.12,ENE,57,0.0,-999.0,88,-99.99,,,0.00,weatherlink.com 1.10,2013-09-08 05:16:00,
2013-09-08 01:31:00,64.5,61.0,30.11,ENE,57,0.0,-999.0,89,-99.99,,,0.00,weatherlink.com 1.10,2013-09-08 05:31:00,
2013-09-08 01:46:00,64.4,61.0,30.11,ENE,57,1.0,-999.0,88,-99.99,,,0.00,weatherlink.com 1.10,2013-09-08 05:46:00,
2013-09-08 02:01:00,64.1,61.0,30.11,NE,55,3.0,-999.0,88,-99.99,,,0.00,weatherlink.com 1.10,2013-09-08 06:01:00,
2013-09-08 02:16:00,64.1,61.0,30.11,NE,55,1.0,-999.0,88,-99.99,,,0.00,weatherlink.com 1.10,2013-09-08 06:16:00,
2013-09-08 02:31:00,64.2,61.0,30.11,ENE,57,3.0,-999.0,89,-99.99,,,0.00,weatherlink.com 1.10,2013-09-08 06:31:00,
2013-09-08 02:46:00,64.2,61.0,30.10,NE,43,2.0,-999.0,89,-99.99,,,0.00,weatherlink.com 1.10,2013-09-08 06:46:00,
2013-09-08 03:01:00,64.0,61.0,30.09,NE,52,3.0,-999.0,90,-99.99,,,0.00,weatherlink.com 1.10,2013-09-08 07:01:00,
2013-09-08 03:16:00,63.5,61.0,30.09,NE,53,4.0,-999.0,91,-99.99,,,0.00,weatherlink.com 1.10,2013-09-08 07:16:00,
2013-09-08 03:31:00,63.5,61.0,30.09,NE,55,3.0,-999.0,91,-99.99,,,0.00,weatherlink.com 1.10,2013-09-08 07:31:00,
2013-09-08 03:46:00,63.5,61.0,30.09,ENE,61,4.0,-999.0,91,-99.99,,,0.00,weatherlink.com 1.10,2013-09-08 07:46:00,
2013-09-08 04:01:00,63.6,61.0,30.08,ENE,65,4.0,-999.0,91,-99.99,,,0.00,weatherlink.com 1.10,2013-09-08 08:01:00,
2013-09-08 04:16:00,63.5,61.0,30.08,NE,46,1.0,-999.0,92,-99.99,,,0.00,weatherlink.com 1.10,2013-09-08 08:16:00,
2013-09-08 04:31:00,63.2,61.0,30.07,ENE,59,6.0,-999.0,92,-99.99,,,0.00,weatherlink.com 1.10,2013-09-08 08:31:00,
2013-09-08 04:46:00,63.4,61.0,30.07,NNE,12,3.0,-999.0,93,-99.99,,,0.00,weatherlink.com 1.10,2013-09-08 08:46:00,
2013-09-08 05:01:00,63.6,61.0,30.07,NE,53,3.0,-999.0,92,-99.99,,,0.00,weatherlink.com 1.10,2013-09-08 09:01:00,
2013-09-08 05:16:00,63.4,61.0,30.07,NNE,15,4.0,-999.0,93,-99.99,,,0.00,weatherlink.com 1.10,2013-09-08 09:16:00,
2013-09-08 05:31:00,63.5,62.0,30.07,NE,53,5.0,-999.0,93,-99.99,,,0.00,weatherlink.com 1.10,2013-09-08 09:31:00,
2013-09-08 05:46:00,63.4,61.0,30.07,NNE,28,4.0,-999.0,93,-99.99,,,0.00,weatherlink.com 1.10,2013-09-08 09:46:00,
2013-09-08 06:01:00,63.4,62.0,30.07,NE,48,3.0,-999.0,94,-99.99,,,0.00,weatherlink.com 1.10,2013-09-08 10:01:00,
2013-09-08 06:16:00,63.4,62.0,30.08,NNE,31,3.0,-999.0,94,-99.99,,,0.00,weatherlink.com 1.10,2013-09-08 10:16:00,
2013-09-08 06:31:00,63.1,62.0,30.08,North,355,4.0,-999.0,95,-99.99,,,0.00,weatherlink.com 1.10,2013-09-08 10:31:00,
2013-09-08 06:46:00,63.4,62.0,30.08,NE,37,4.0,-999.0,94,-99.99,,,0.00,weatherlink.com 1.10,2013-09-08 10:46:00,
2013-09-08 07:01:00,63.6,62.0,30.08,NE,35,2.0,-999.0,93,-99.99,,,0.00,weatherlink.com 1.10,2013-09-08 11:01:00,
2013-09-08 07:16:00,63.7,62.0,30.08,ENE,72,0.0,-999.0,93,-99.99,,,0.00,weatherlink.com 1.10,2013-09-08 11:16:00,
2013-09-08 07:31:00,63.9,62.0,30.09,ENE,65,7.0,-999.0,93,-99.99,,,0.00,weatherlink.com 1.10,2013-09-08 11:31:00,
2013-09-08 07:46:00,64.0,62.0,30.09,East,80,4.0,-999.0,92,-99.99,,,0.00,weatherlink.com 1.10,2013-09-08 11:46:00,
2013-09-08 08:01:00,64.2,62.0,30.10,NE,38,2.0,-999.0,91,-99.99,,,0.00,weatherlink.com 1.10,2013-09-08 12:01:00,
2013-09-08 08:16:00,64.2,62.0,30.09,NNE,32,4.0,-999.0,91,-99.99,,,0.00,weatherlink.com 1.10,2013-09-08 12:16:00,
2013-09-08 08:31:00,64.3,62.0,30.10,ESE,103,5.0,-999.0,91,-99.99,,,0.00,weatherlink.com 1.10,2013-09-08 12:31:00,
2013-09-08 08:46:00,64.6,62.0,30.09,NE,51,3.0,-999.0,90,-99.99,,,0.00,weatherlink.com 1.10,2013-09-08 12:46:00,
2013-09-08 09:01:00,64.7,62.0,30.09,ENE,77,5.0,-999.0,90,-99.99,,,0.00,weatherlink.com 1.10,2013-09-08 13:01:00,
2013-09-08 09:16:00,65.0,62.0,30.09,NNE,26,0.0,-999.0,89,-99.99,,,0.00,weatherlink.com 1.10,2013-09-08 13:16:00,
2013-09-08 09:31:00,65.4,62.0,30.10,ENE,61,7.0,-999.0,89,-99.99,,,0.00,weatherlink.com 1.10,2013-09-08 13:31:00,
2013-09-08 09:46:00,66.1,63.0,30.10,ENE,63,4.0,-999.0,88,-99.99,,,0.00,weatherlink.com 1.10,2013-09-08 13:46:00,
2013-09-08 10:01:00,66.4,62.0,30.10,NE,44,4.0,-999.0,86,-99.99,,,0.00,weatherlink.com 1.10,2013-09-08 14:01:00,
2013-09-08 10:16:00,66.9,62.0,30.10,NNE,28,2.0,-999.0,83,-99.99,,,0.00,weatherlink.com 1.10,2013-09-08 14:16:00,
2013-09-08 10:31:00,67.5,63.0,30.10,NNW,348,6.0,-999.0,84,-99.99,,,0.00,weatherlink.com 1.10,2013-09-08 14:31:00,
2013-09-08 10:46:00,68.0,62.0,30.10,NE,41,1.0,-999.0,82,-99.99,,,0.00,weatherlink.com 1.10,2013-09-08 14:46:00,
2013-09-08 11:01:00,68.4,63.0,30.10,NNE,31,2.0,-999.0,83,-99.99,,,0.00,weatherlink.com 1.10,2013-09-08 15:01:00,
2013-09-08 11:16:00,69.0,64.0,30.10,NNE,28,3.0,-999.0,83,-99.99,,,0.00,weatherlink.com 1.10,2013-09-08 15:16:00,
2013-09-08 11:31:00,69.2,64.0,30.09,North,360,3.0,-999.0,82,-99.99,,,0.00,weatherlink.com 1.10,2013-09-08 15:31:00,
2013-09-08 11:46:00,69.3,63.0,30.09,ENE,64,4.0,-999.0,80,-99.99,,,0.00,weatherlink.com 1.10,2013-09-08 15:46:00,
2013-09-08 12:01:00,69.5,62.0,30.09,NNE,21,1.0,-999.0,78,-99.99,,,0.00,weatherlink.com 1.10,2013-09-08 16:01:00,
2013-09-08 12:16:00,70.2,64.0,30.09,NE,46,1.0,-999.0,80,-99.99,,,0.00,weatherlink.com 1.10,2013-09-08 16:16:00,
2013-09-08 12:31:00,70.5,63.0,30.10,NE,46,5.0,-999.0,77,-99.99,,,0.00,weatherlink.com 1.10,2013-09-08 16:31:00,
2013-09-08 12:46:00,70.8,61.0,30.10,NNW,346,2.0,-999.0,72,-99.99,,,0.00,weatherlink.com 1.10,2013-09-08 16:46:00,
2013-09-08 13:01:00,71.2,62.0,30.10,NNE,14,4.0,-999.0,73,-99.99,,,0.00,weatherlink.com 1.10,2013-09-08 17:01:00,
2013-09-08 13:16:00,71.7,62.0,30.09,NW,319,4.0,-999.0,72,-99.99,,,0.00,weatherlink.com 1.10,2013-09-08 17:16:00,
2013-09-08 13:31:00,72.9,63.0,30.09,NE,38,3.0,-999.0,70,-99.99,,,0.00,weatherlink.com 1.10,2013-09-08 17:31:00,
2013-09-08 13:46:00,72.2,62.0,30.09,NNE,21,4.0,-999.0,71,-99.99,,,0.00,weatherlink.com 1.10,2013-09-08 17:46:00,
2013-09-08 14:01:00,71.9,63.0,30.09,NNE,26,3.0,-999.0,74,-99.99,,,0.00,weatherlink.com 1.10,2013-09-08 18:01:00,
2013-09-08 14:16:00,71.8,61.0,30.08,NE,38,5.0,-999.0,68,-99.99,,,0.00,weatherlink.com 1.10,2013-09-08 18:16:00,
2013-09-08 14:31:00,72.1,61.0,30.08,NNE,25,2.0,-999.0,68,-99.99,,,0.00,weatherlink.com 1.10,2013-09-08 18:31:00,
2013-09-08 14:46:00,72.3,62.0,30.08,NW,304,3.0,-999.0,69,-99.99,,,0.00,weatherlink.com 1.10,2013-09-08 18:46:00,
2013-09-08 15:01:00,72.0,62.0,30.08,NE,43,2.0,-999.0,71,-99.99,,,0.00,weatherlink.com 1.10,2013-09-08 19:01:00,
2013-09-08 15:16:00,73.0,63.0,30.07,NE,41,5.0,-999.0,72,-99.99,,,0.00,weatherlink.com 1.10,2013-09-08 19:16:00,
2013-09-08 15:31:00,73.2,62.0,30.06,NW,322,0.0,-999.0,69,-99.99,,,0.00,weatherlink.com 1.10,2013-09-08 19:31:00,
2013-09-08 15:46:00,72.7,62.0,30.06,NNW,329,0.0,-999.0,70,-99.99,,,0.00,weatherlink.com 1.10,2013-09-08 19:46:00,
2013-09-08 16:01:00,72.9,63.0,30.07,NE,36,0.0,-999.0,70,-99.99,,,0.00,weatherlink.com 1.10,2013-09-08 20:01:00,
2013-09-08 16:16:00,72.7,62.0,30.06,NNE,32,3.0,-999.0,70,-99.99,,,0.00,weatherlink.com 1.10,2013-09-08 20:16:00,
2013-09-08 16:31:00,72.5,63.0,30.07,NE,53,3.0,-999.0,71,-99.99,,,0.00,weatherlink.com 1.10,2013-09-08 20:31:00,
2013-09-08 16:46:00,72.7,64.0,30.07,NE,45,1.0,-999.0,73,-99.99,,,0.00,weatherlink.com 1.10,2013-09-08 20:46:00,
2013-09-08 17:01:00,73.0,63.0,30.06,North,11,1.0,-999.0,72,-99.99,,,0.00,weatherlink.com 1.10,2013-09-08 21:01:00,
2013-09-08 17:16:00,73.0,61.0,30.06,NE,40,2.0,-999.0,66,-99.99,,,0.00,weatherlink.com 1.10,2013-09-08 21:16:00,
2013-09-08 17:31:00,72.7,60.0,30.06,NE,40,1.0,-999.0,64,-99.99,,,0.00,weatherlink.com 1.10,2013-09-08 21:31:00,
2013-09-08 17:46:00,72.4,60.0,30.06,North,355,0.0,-999.0,65,-99.99,,,0.00,weatherlink.com 1.10,2013-09-08 21:46:00,
2013-09-08 18:01:00,72.2,61.0,30.06,North,355,0.0,-999.0,67,-99.99,,,0.00,weatherlink.com 1.10,2013-09-08 22:01:00,
2013-09-08 18:16:00,71.7,62.0,30.06,NNE,24,0.0,-999.0,72,-99.99,,,0.00,weatherlink.com 1.10,2013-09-08 22:16:00,
2013-09-08 18:31:00,71.3,62.0,30.05,North,11,0.0,-999.0,73,-99.99,,,0.00,weatherlink.com 1.10,2013-09-08 22:31:00,
2013-09-08 18:46:00,71.1,62.0,30.06,NNE,15,0.0,-999.0,74,-99.99,,,0.00,weatherlink.com 1.10,2013-09-08 22:46:00,
2013-09-08 19:01:00,70.7,62.0,30.05,ENE,63,0.0,-999.0,74,-99.99,,,0.00,weatherlink.com 1.10,2013-09-08 23:01:00,
2013-09-08 19:16:00,70.1,62.0,30.05,ENE,69,1.0,-999.0,76,-99.99,,,0.00,weatherlink.com 1.10,2013-09-08 23:16:00,
2013-09-08 19:31:00,69.5,62.0,30.05,ENE,63,1.0,-999.0,76,-99.99,,,0.00,weatherlink.com 1.10,2013-09-08 23:31:00,
2013-09-08 19:46:00,69.3,61.0,30.05,NE,46,0.0,-999.0,76,-99.99,,,0.00,weatherlink.com 1.10,2013-09-08 23:46:00,
2013-09-08 20:01:00,69.2,61.0,30.05,NE,51,0.0,-999.0,76,-99.99,,,0.00,weatherlink.com 1.10,2013-09-09 00:01:00,
2013-09-08 20:16:00,69.3,62.0,30.06,NE,53,0.0,-999.0,77,-99.99,,,0.00,weatherlink.com 1.10,2013-09-09 00:16:00,
2013-09-08 20:31:00,68.9,61.0,30.07,NE,53,0.0,-999.0,77,-99.99,,,0.00,weatherlink.com 1.10,2013-09-09 00:31:00,
2013-09-08 20:46:00,68.6,62.0,30.07,NE,53,0.0,-999.0,78,-99.99,,,0.00,weatherlink.com 1.10,2013-09-09 00:46:00,
2013-09-08 21:01:00,68.1,61.0,30.07,NE,53,0.0,-999.0,78,-99.99,,,0.00,weatherlink.com 1.10,2013-09-09 01:01:00,
2013-09-08 21:16:00,68.2,61.0,30.07,East,90,1.0,-999.0,79,-99.99,,,0.00,weatherlink.com 1.10,2013-09-09 01:16:00,
2013-09-08 21:31:00,68.3,62.0,30.08,East,85,0.0,-999.0,79,-99.99,,,0.00,weatherlink.com 1.10,2013-09-09 01:31:00,
2013-09-08 21:46:00,68.5,62.0,30.08,East,81,0.0,-999.0,79,-99.99,,,0.00,weatherlink.com 1.10,2013-09-09 01:46:00,
2013-09-08 22:01:00,68.4,62.0,30.09,ENE,59,0.0,-999.0,80,-99.99,,,0.00,weatherlink.com 1.10,2013-09-09 02:01:00,
2013-09-08 22:16:00,68.2,62.0,30.08,ENE,78,1.0,-999.0,80,-99.99,,,0.00,weatherlink.com 1.10,2013-09-09 02:16:00,
2013-09-08 22:31:00,67.8,62.0,30.09,ENE,78,0.0,-999.0,81,-99.99,,,0.00,weatherlink.com 1.10,2013-09-09 02:31:00,
2013-09-08 22:46:00,67.7,62.0,30.09,ENE,78,2.0,-999.0,82,-99.99,,,0.00,weatherlink.com 1.10,2013-09-09 02:46:00,
2013-09-08 23:01:00,67.7,62.0,30.09,East,80,1.0,-999.0,82,-99.99,,,0.00,weatherlink.com 1.10,2013-09-09 03:01:00,
2013-09-08 23:16:00,67.6,62.0,30.10,East,81,0.0,-999.0,83,-99.99,,,0.00,weatherlink.com 1.10,2013-09-09 03:16:00,
2013-09-08 23:31:00,67.3,62.0,30.10,East,81,0.0,-999.0,83,-99.99,,,0.00,weatherlink.com 1.10,2013-09-09 03:31:00,
2013-09-08 23:46:00,67.2,62.0,30.10,East,81,0.0,-999.0,83,-99.99,,,0.00,weatherlink.com 1.10,2013-09-09 03:46:00,